Location: Curupao
(10.4996°N, 66.6442°W)
Time: 01:30:05
(UTC+00:00)

H-2A R/B - Pass Details

Date: 23 May 2024
Orbit: 141 x 2698 km, 31.8° (Epoch: 12 June)

Event Time Altitude Azimuth Distance (km) Brightness Sun altitude
Exits shadow 06:54:35 27° 125° (SE) 2,496 4.6 -41.5°
Drops below altitude 10° 06:59:30 10° 124° (SE) 4,179 5.9 -40.6°
Enters shadow 08:26:08 -55° 307° (NW) 10,628 7.9 -22.7°
